This is the latest recevied weather packets stored in our database for station/object KSRR. If no packets are shown the sender has not sent any weather packets the latest 1 day(s).
| Time | Temp. | Humidity | Pressure | Rain* | Wind** | Luminosity | Snow |
|---|---|---|---|---|---|---|---|
| 1778114624 | 16.67° C | 12% | 1018.3 hPa | - | - | - | - |
| 1778114016 | 16.67° C | 12% | 1018.3 hPa | - | - | - | - |
| 1778113419 | 16.67° C | 12% | 1018.3 hPa | - | - | - | - |
| 1778112824 | 16.67° C | 13% | 1018.3 hPa | - | - | - | - |
| 1778109220 | 17.78° C | 11% | 1015.6 hPa | - | - | - | - |
| 1778108620 | 17.78° C | 11% | 1015.6 hPa | - | - | - | - |
| 1778106821 | 17.78° C | 11% | 1017.6 hPa | - | - | - | - |
| 1778105621 | 17.78° C | 11% | 1017.6 hPa | - | - | - | - |
| 1778104425 | 17.78° C | 10% | 1017.6 hPa | - | - | - | - |
| 1778102019 | 17.78° C | 13% | 1017.6 hPa | - | - | - | - |
| 1778101423 | 17.78° C | 13% | 1017.6 hPa | - | - | - | - |
| 1778100219 | 16.67° C | 12% | 1017.9 hPa | - | - | - | - |
| 1778098418 | 16.67° C | 13% | 1017.9 hPa | - | - | - | - |
| 1778097820 | 16.67° C | 13% | 1017.9 hPa | - | - | - | - |
| 1778096019 | 15.56° C | 13% | 1018.3 hPa | - | - | - | - |
| 1778094221 | 15.56° C | 15% | 1018.6 hPa | - | - | - | - |
| 1778093022 | 15° C | 16% | 1018.6 hPa | - | - | - | - |
| 1778091823 | 15° C | 19% | 1019 hPa | - | - | - | - |
| 1778089420 | 13.89° C | 19% | 1019 hPa | - | - | - | - |
| 1778086425 | 12.78° C | 22% | 1019 hPa | - | - | - | - |
| 1778085821 | 12.78° C | 22% | 1019 hPa | - | - | - | - |
| 1778085223 | 12.78° C | 24% | 1018.6 hPa | - | - | - | - |
| 1778082220 | 11.67° C | 27% | 1018.6 hPa | - | - | - | - |
| 1778081022 | 11.67° C | 27% | 1018.6 hPa | - | - | - | - |
| 1778080421 | 11.67° C | 27% | 1018.6 hPa | - | - | - | - |
* Rain since midnight (hover to see other rain measurements)
** Current wind speed in m/s (hover to see current wind gust speed)